Location: Hamburg
(53.5500°N, 10.0000°E)
Time: 08:46:13
(UTC+02:00)

ISS - Visible Passes

Search period start: 28 July 2017 00:00
Search period end: 07 August 2017 00:00
Orbit: 400 x 408 km, 51.6° (Epoch: 28 July)

Date Brightness Start Highest point End Pass type
(mag) Time Alt. Az. Time Alt. Az. Time Alt. Az.
28 Jul -3.8 00:43:32 10° W 00:46:45 55° S 00:46:57 53° S visible
28 Jul -3.5 22:15:04 10° WSW 22:18:13 45° SSE 22:21:21 10° E visible
28 Jul -3.9 23:51:17 10° W 23:54:30 61° S 23:56:09 26° ESE visible
29 Jul -1.8 01:27:45 10° W 01:28:46 17° WSW 01:28:46 17° WSW visible
29 Jul -3.9 22:59:00 10° W 23:02:14 62° S 23:05:24 10° E visible
30 Jul -3.2 00:35:24 10° W 00:38:01 38° SW 00:38:01 38° SW visible
30 Jul -3.7 22:06:45 10° WSW 22:09:57 58° S 22:13:10 10° E visible
30 Jul -3.7 23:43:04 10° W 23:46:16 52° SSW 23:47:17 35° SE visible
31 Jul -1.2 01:19:48 10° W 01:19:54 11° W 01:19:54 11° W visible
31 Jul -3.8 22:50:46 10° W 22:53:59 60° S 22:56:35 15° ESE visible
01 Aug -2.3 00:27:17 10° W 00:29:12 24° WSW 00:29:12 24° WSW visible
01 Aug -3.8 21:58:27 10° W 22:01:41 63° S 22:04:55 10° E visible
01 Aug -3.2 23:34:52 10° W 23:37:56 38° SSW 23:38:31 34° S visible
02 Aug -3.5 22:42:30 10° W 22:45:40 48° SSW 22:47:51 18° SE visible
03 Aug -1.6 00:19:20 10° WSW 00:20:28 15° WSW 00:20:28 15° WSW visible
03 Aug -2.6 23:26:43 10° W 23:29:29 25° SSW 23:29:49 25° SSW visible
04 Aug -2.9 22:34:14 10° W 22:37:14 34° SSW 22:39:10 18° SE visible
05 Aug -1.8 23:18:48 10° WSW 23:20:52 16° SW 23:21:10 16° SSW visible
06 Aug -2.2 22:26:03 10° W 22:28:40 23° SSW 22:30:35 14° SSE visible
